カタログに戻る

FENGYUN 1C DEB

LostSSO
NORAD 38160·DEBRIS·🇨🇳 China

打ち上げ May 10, 1999 から Taiyuan Satellite Launch Center

Loading…

次のパス (今後24時間)

TLE

古いSource: Space-Track

元期: Oct 21, 2022, 03:20 UTC

1 38160U 99025ERH 22294.13908144  .00004811  00000-0  21532-2 0  9991
2 38160  99.0354  46.1823 0034956 171.1448 189.0353 14.22735288480134

AllMySatでFENGYUN 1C DEBをリアルタイム追跡

Download on the App Store